DW7032 Weather Reports


time (UTC)temp
F
wind
direction
speed
knots
gust
knots
rain 1hr
in
rain 24hr
in
rain mn
in
humidity
%
barometer
mb
20260507231538 44 259 1.7 6.1 0.00 0.00 0.00 54 1011.0
20260507230038 44 347 1.7 4.3 0.00 0.00 0.00 54 1011.3
20260507224538 44 228 2.6 5.2 0.00 0.00 0.00 52 1011.2
20260507223038 45 214 1.7 6.1 0.00 0.00 0.00 54 1011.3
20260507221536 45 267 1.7 5.2 0.00 0.00 0.00 54 1011.4
20260507220036 46 280 1.7 7.0 0.00 0.00 0.00 54 1011.4
20260507214539 46 291 0.9 8.7 0.00 0.00 0.00 52 1011.3
20260507213043 46 306 1.7 7.0 0.00 0.00 0.00 50 1011.4
20260507211546 46 243 4.3 10.4 0.00 0.00 0.00 48 1011.2
20260507210039 47 347 3.5 10.4 0.00 0.00 0.00 47 1011.3
20260507204534 48 252 4.3 7.8 0.00 0.00 0.00 45 1011.3
20260507203032 48 235 2.6 9.6 0.00 0.00 0.00 49 1011.3
20260507201542 48 277 2.6 7.8 0.00 0.00 0.00 48 1011.4
20260507200038 48 176 5.2 11.3 0.00 0.00 0.00 51 1011.3
20260507194531 48 269 4.3 8.7 0.00 0.00 0.00 47 1011.4
20260507193029 48 264 3.5 8.7 0.00 0.00 0.00 48 1011.5
20260507191528 48 200 3.5 8.7 0.00 0.00 0.00 48 1011.6
20260507190026 48 293 3.5 8.7 0.00 0.00 0.00 51 1011.7
20260507184524 48 265 2.6 7.0 0.00 0.00 0.00 52 1011.8
20260507183023 47 297 2.6 9.6 0.00 0.00 0.00 53 1011.9
20260507181522 46 282 2.6 7.8 0.00 0.00 0.00 54 1012.0
20260507180038 46 248 4.3 11.3 0.00 0.00 0.00 52 1012.2
20260507174524 48 233 2.6 11.3 0.00 0.00 0.00 52 1012.4
20260507173022 47 247 3.5 7.0 0.00 0.00 0.00 54 1012.4
20260507171512 47 258 2.6 7.8 0.00 0.00 0.00 59 1012.6
20260507170028 45 231 1.7 8.7 0.00 0.00 0.00 60 1012.8
20260507164507 45 250 2.6 7.8 0.00 0.00 0.00 60 1012.9
20260507163004 44 244 2.6 7.8 0.00 0.00 0.00 62 1012.9
20260507161506 44 187 2.6 8.7 0.00 0.00 0.00 60 1013.1
20260507160002 44 206 0.9 6.1 0.00 0.00 0.00 66 1013.1
20260507154501 44 210 1.7 6.1 0.00 0.00 0.00 65 1013.2
20260507153107 43 255 0.9 7.0 0.00 0.00 0.00 67 1013.2
20260507151555 43 208 1.7 6.1 0.00 0.00 0.00 68 1013.3
20260507150100 42 196 1.7 7.0 0.00 0.00 0.00 70 1013.3
20260507144549 42 212 1.7 4.3 0.00 0.00 0.00 72 1013.2
20260507143057 41 284 1.7 5.2 0.00 0.00 0.00 74 1013.3
20260507141541 41 263 0.9 3.5 0.00 0.00 0.00 75 1013.3
20260507140038 40 173 1.7 5.2 0.00 0.00 0.00 76 1013.3
20260507134534 40 176 1.7 3.5 0.00 0.00 0.00 78 1013.3
20260507133033 39 250 1.7 4.3 0.00 0.00 0.00 79 1013.3
20260507131531 38 214 1.7 3.5 0.00 0.00 0.00 78 1013.2
20260507130031 38 190 0.9 3.5 0.00 0.00 0.00 80 1013.2
20260507124525 37 196 1.7 3.5 0.00 0.00 0.00 81 1013.2
20260507123023 36 175 0.9 3.5 0.00 0.00 0.00 84 1013.1
20260507121520 35 222 0.9 2.6 0.00 0.00 0.00 88 1013.2
20260507120019 34 283 0.0 1.7 0.00 0.00 0.00 90 1013.1
20260507114518 32 288 0.0 0.9 0.00 0.00 0.00 91 1012.9
20260507113023 31 288 0.0 1.7 0.00 0.00 0.00 91 1012.9
20260507111518 29 291 0.0 0.0 0.00 0.00 0.00 89 1012.8
20260507110015 29 291 0.0 0.0 0.00 0.00 0.00 88 1012.8
20260507104514 29 291 0.0 0.0 0.00 0.00 0.00 88 1012.7
20260507103012 29 291 0.0 0.0 0.00 0.00 0.00 87 1012.7
20260507101511 30 291 0.0 0.0 0.00 0.00 0.00 86 1012.7
20260507100015 30 291 0.0 0.0 0.00 0.00 0.00 86 1012.7
20260507094508 31 291 0.0 0.0 0.00 0.00 0.00 86 1012.8
20260507093013 31 291 0.0 0.0 0.00 0.00 0.00 86 1012.8
20260507091506 31 291 0.0 0.0 0.00 0.00 0.00 86 1013.0
20260507090006 31 291 0.0 0.0 0.00 0.00 0.00 86 1012.9
20260507084514 31 347 0.0 0.0 0.00 0.00 0.00 86 1013.0
20260507083004 31 291 0.0 0.0 0.00 0.00 0.00 86 1013.1
20260507081501 31 291 0.0 0.0 0.00 0.00 0.00 86 1013.1
20260507080001 31 291 0.0 0.0 0.00 0.00 0.00 86 1013.2
20260507074608 30 291 0.0 2.6 0.00 0.00 0.00 86 1013.1
20260507073059 30 291 0.0 0.0 0.00 0.00 0.00 84 1013.2
20260507071606 30 291 0.0 0.0 0.00 0.00 0.00 84 1013.3
20260507070106 30 291 0.0 0.0 0.00 0.00 0.00 82 1013.5
20260507064556 30 291 0.0 0.0 0.00 0.00 0.00 81 1013.7
20260507063051 30 291 0.0 0.0 0.00 0.00 0.00 80 1013.8
20260507061549 31 291 0.0 0.0 0.00 0.00 0.00 81 1013.8
20260507060047 31 291 0.0 0.9 0.00 0.00 0.00 80 1013.9
20260507054605 32 291 0.0 0.9 0.00 0.00 0.00 79 1013.7
20260507053043 32 291 0.0 0.0 0.00 0.00 0.00 77 1013.9
20260507051546 33 291 0.0 0.0 0.00 0.00 0.00 75 1014.0
20260507050043 33 291 0.0 0.9 0.00 0.00 0.00 75 1014.0
20260507044537 34 291 0.0 0.9 0.00 0.00 0.00 75 1014.1
20260507043030 34 291 0.0 0.9 0.00 0.00 0.00 75 1014.2
20260507041528 35 291 0.0 0.9 0.00 0.00 0.00 73 1014.2
20260507040025 35 291 0.0 1.7 0.00 0.00 0.00 70 1014.3
20260507034523 36 291 0.0 1.7 0.00 0.00 0.00 69 1014.4
20260507033023 36 291 0.0 1.7 0.00 0.00 0.00 68 1014.4
20260507031522 37 291 0.0 0.9 0.00 0.00 0.00 68 1014.4
20260507030020 38 291 0.0 0.9 0.00 0.00 0.00 65 1014.3
20260507024520 38 291 0.0 0.9 0.00 0.00 0.00 64 1014.2
20260507023019 39 291 0.0 0.9 0.00 0.00 0.00 61 1014.1
20260507021527 39 291 0.0 1.7 0.00 0.00 0.00 60 1014.1
20260507020018 40 291 0.0 1.7 0.00 0.00 0.00 61 1014.1
20260507014518 40 291 0.9 2.6 0.00 0.00 0.00 60 1014.0
20260507013016 40 291 0.0 2.6 0.00 0.00 0.00 59 1013.9
20260507011520 40 295 0.0 1.7 0.00 0.00 0.00 58 1013.7
20260507010021 40 296 0.0 0.9 0.00 0.00 0.00 57 1013.8
20260507004515 41 295 0.9 2.6 0.00 0.00 0.00 57 1013.7
20260507003014 41 347 0.0 1.7 0.00 0.00 0.00 56 1013.6
20260507001515 41 291 0.9 2.6 0.00 0.00 0.00 56 1013.6
20260507000018 41 268 0.9 3.5 0.00 0.00 0.00 54 1013.5
20260506234512 42 248 1.7 3.5 0.00 0.00 0.00 54 1013.6
20260506233012 41 224 1.7 4.3 0.00 0.00 0.00 53 1013.6